Simultaneous Nadir Overpasses (SNOs) Predictions

Prediction of SNOs between NPP and GCOM-C Satellite Orbit:

Table of predicted SNOs for the next 14.0 days since TLE Epoch: 6/1/2024
Index Date (NPP) Time (NPP) Lat,Lon (NPP) SZA (NPP ) Date (GCOM-C) Time (GCOM-C) Lat,Lon (GCOM-C) SZA (GCOM-C ) Distance(km) Time Diff (sec)
1 06/01/2024 08:07:40 69.80, 54.83 47.59 06/01/2024 08:08:47 69.75, 57.14 47.50 89.16 67
2 06/01/2024 08:58:15 -69.34,-137.18 132.90 06/01/2024 08:59:26 -69.26,-136.18 133.00 40.46 71
3 06/01/2024 09:48:53 68.91, 30.72 46.66 06/01/2024 09:50:00 68.88, 30.70 46.63 3.22 67
4 06/01/2024 10:39:36 -68.87,-161.91 133.39 06/01/2024 10:40:30 -68.87,-161.94 133.39 1.32 54
5 06/01/2024 11:30:22 68.87, 5.41 46.61 06/01/2024 11:30:57 68.87, 5.45 46.61 1.80 35
6 06/01/2024 12:21:04 -68.83, 172.77 133.44 06/01/2024 12:21:27 -68.81, 172.74 133.46 2.98 23
7 06/01/2024 13:11:50 68.83, -19.91 46.56 06/01/2024 13:11:54 68.81, -19.87 46.54 2.31 4
8 06/01/2024 14:02:33 -68.79, 147.45 133.49 06/01/2024 14:02:24 -68.80, 147.49 133.48 1.75 9
9 06/01/2024 14:53:18 68.73, -45.16 46.45 06/01/2024 14:52:52 68.75, -45.19 46.47 2.40 26
10 06/01/2024 15:44:02 -68.75, 122.14 133.54 06/01/2024 15:43:22 -68.74, 122.17 133.55 1.86 40
11 06/01/2024 16:34:47 68.69, -70.48 46.40 06/01/2024 16:33:50 68.68, -70.51 46.40 1.54 57
12 06/01/2024 17:25:30 -68.65, 96.89 133.65 06/01/2024 17:24:20 -68.67, 96.85 133.62 2.82 70
13 06/01/2024 18:16:07 68.16, -95.16 45.86 06/01/2024 18:14:56 68.19, -96.38 45.90 50.46 71
14 06/01/2024 19:06:42 -67.70, 72.73 134.62 06/01/2024 19:05:35 -67.69, 70.39 134.60 98.91 67
15 06/14/2024 07:22:47 69.58, 66.34 46.22 06/14/2024 07:23:56 69.54, 67.99 46.15 64.44 69
16 06/14/2024 08:13:22 -69.11,-125.67 134.27 06/14/2024 08:14:35 -69.06,-125.30 134.34 15.85 73
17 06/14/2024 09:04:04 68.90, 41.92 45.52 06/14/2024 09:05:05 68.89, 41.85 45.50 3.24 61
18 06/14/2024 09:54:48 -68.91,-150.77 134.48 06/14/2024 09:55:35 -68.89,-150.77 134.51 2.64 47
19 06/14/2024 10:45:33 68.86, 16.60 45.47 06/14/2024 10:46:02 68.88, 16.60 45.48 1.57 29
20 06/14/2024 11:36:17 -68.87,-176.09 134.53 06/14/2024 11:36:32 -68.88,-176.02 134.52 2.90 15
21 06/14/2024 12:27:02 68.82, -8.72 45.43 06/14/2024 12:27:00 68.81, -8.72 45.42 1.07 2
22 06/14/2024 13:17:46 -68.83, 158.59 134.57 06/14/2024 13:17:30 -68.81, 158.66 134.59 3.27 16
23 06/14/2024 14:08:31 68.78, -34.04 45.38 06/14/2024 14:07:57 68.80, -33.97 45.40 3.50 34
24 06/14/2024 14:59:14 -68.73, 133.34 134.67 06/14/2024 14:58:28 -68.75, 133.34 134.65 1.49 46
25 06/14/2024 15:50:00 68.74, -59.35 45.34 06/14/2024 15:48:55 68.74, -59.29 45.34 2.52 65
26 06/14/2024 16:40:41 -68.59, 108.17 134.82 06/14/2024 16:39:27 -68.63, 107.94 134.77 10.16 74
27 06/14/2024 17:31:15 67.94, -83.70 44.52 06/14/2024 17:30:06 67.97, -85.51 44.58 75.30 69



Historial Predications of SNOs between NPP and GCOM-C
